Weather History for Resolute, NU

Change the Weather History Date:

Sunday, February 26, 2012

  Actual Average Record
Temperature  
Mean Temperature -30 °F -  
Max Temperature -27 °F -18 °F 8 °F (2006)
Min Temperature -32 °F -29 °F -50 °F (1997)
Degree Days  
Heating Degree Days 94    
Moisture  
Dew Point -37 °F    
Average Humidity 64    
Maximum Humidity 75    
Minimum Humidity 46    
Precipitation  
Precipitation 0.00 in - - ()
Sea Level Pressure  
Sea Level Pressure 30.17 in    
Wind  
Wind Speed 6 mph ()    
Max Wind Speed 12 mph    
Max Gust Speed -    
Visibility 12.0 miles    
Events Snow    
Averages and records for this station are not official NWS values.
T = Trace of Precipitation, MM = Missing Value Source: Averaged Metar Reports

Daily Weather History Graph

Daily Weather History Graph

Search for Another Location

Airport:

Trip Planner

Search our weather history database for the weather conditions in past years. The results will help you decide how hot, cold, wet, or windy it might be!

Date:

Astronomy

Feb. 26, 2012 Rise Set
Actual Time 8:35 AM CST 4:32 PM CST
Civil Twilight 7:11 AM CST 5:57 PM CST
Nautical Twilight 5:39 AM CST 7:29 PM CST
Astronomical Twilight 4:00 AM CST 9:09 PM CST
Moon 5:16 AM CST (2/26) 1:32 AM CST (2/26)
Length of Visible Light 10h 45m
Length of Day
7h 56m
Waxing Crescent, 21% of the Moon is Illuminated
Feb 26
Waxing Crescent
Feb 29
First Quarter
Mar 8
Full
Mar 14
Last Quarter
Mar 22
New

Hourly Weather History & Observations

Time (CST) Temp. Windchill Dew Point Humidity Pressure Visibility Wind Dir Wind Speed Gust Speed Precip Events Conditions
12:00 AM -27 °F - -34 °F 52% 30.29 in 15 mi NNW 8.1 mph - - Snow Snow
12:00 AM -27.4 °F -47.6 °F -34.6 °F 69% 30.29 in 15.0 mi NNW 8.1 mph - N/A   Partly Cloudy
1:00 AM -27.4 °F -45.9 °F -36.4 °F 62% 30.28 in 15.0 mi NW 6.9 mph - N/A   Partly Cloudy
2:00 AM -29.2 °F -44.0 °F -36.4 °F 68% 30.28 in 15.0 mi NW 4.6 mph - N/A   Partly Cloudy
3:00 AM -29.2 °F -46.2 °F -36.4 °F 68% 30.27 in 15.0 mi NW 5.8 mph - N/A   Partly Cloudy
4:00 AM -29.2 °F -46.2 °F -38.2 °F 62% 30.27 in 15.0 mi NW 5.8 mph - N/A   Partly Cloudy
5:00 AM -29.2 °F -44.0 °F -38.2 °F 62% 30.25 in 15.0 mi NNW 4.6 mph - N/A   Partly Cloudy
6:00 AM -30 °F - -38 °F 46% 30.24 in 15 mi NNW 4.6 mph - - Snow Snow
6:00 AM -31.0 °F -46.1 °F -38.2 °F 68% 30.24 in 15.0 mi NNW 4.6 mph - N/A   Scattered Clouds
7:00 AM -31.0 °F -48.4 °F -38.2 °F 68% 30.22 in 10.0 mi NNW 5.8 mph - N/A   Scattered Clouds
8:00 AM -31.0 °F -48.4 °F -38.2 °F 68% 30.21 in 12.0 mi NW 5.8 mph - N/A   Partly Cloudy
9:00 AM -31.0 °F -48.4 °F -38.2 °F 68% 30.19 in 15.0 mi NNW 5.8 mph - N/A   Scattered Clouds
10:00 AM -32.8 °F -50.5 °F -38.2 °F 75% 30.18 in 6.0 mi NW 5.8 mph - N/A   Ice Crystals
11:00 AM -31.0 °F -48.4 °F -38.2 °F 68% 30.17 in 10.0 mi NNW 5.8 mph - N/A   Mostly Cloudy
12:00 PM -31 °F - -39 °F 49% 30.16 in 15 mi NW 4.6 mph - - Snow Snow
12:00 PM -31.0 °F -46.1 °F -38.2 °F 68% 30.16 in 15.0 mi NW 4.6 mph - N/A   Mostly Cloudy
1:00 PM -31.0 °F -48.4 °F -38.2 °F 68% 30.14 in 10.0 mi NW 5.8 mph - N/A   Scattered Clouds
2:00 PM -29.2 °F -48.1 °F -38.2 °F 62% 30.14 in 12.0 mi WNW 6.9 mph - N/A   Partly Cloudy
3:00 PM -29.2 °F -49.7 °F -36.4 °F 68% 30.13 in 10.0 mi WNW 8.1 mph - N/A   Scattered Clouds
4:00 PM -29.2 °F -46.2 °F -36.4 °F 68% 30.12 in 10.0 mi WNW 5.8 mph - N/A   Mostly Cloudy
5:00 PM -29.2 °F -49.7 °F -38.2 °F 62% 30.11 in 10.0 mi WNW 8.1 mph - N/A   Mostly Cloudy
6:00 PM -30 °F - -37 °F 50% 30.09 in 10 mi WNW 5.8 mph - - Snow Snow
6:00 PM -29.2 °F -46.2 °F -38.2 °F 62% 30.09 in 10.0 mi WNW 5.8 mph - N/A   Mostly Cloudy
7:00 PM -29.2 °F -48.1 °F -36.4 °F 68% 30.07 in 7.0 mi WNW 6.9 mph - N/A   Mostly Cloudy
8:00 PM -29.2 °F -46.2 °F -36.4 °F 68% 30.05 in 10.0 mi WNW 5.8 mph - N/A   Mostly Cloudy
9:00 PM -27.4 °F -51.4 °F -36.4 °F 62% 30.02 in 8.0 mi NW 11.5 mph - N/A Snow Low Drifting Snow
10:00 PM -31.0 °F -50.3 °F -36.4 °F 75% 30.02 in 12.0 mi West 6.9 mph - N/A   Scattered Clouds
11:00 PM -29.2 °F -44.0 °F -36.4 °F 68% 30.00 in 10.0 mi WNW 4.6 mph - N/A   Scattered Clouds